Temp
20 19 19 19 19 19 19 19 19 19 19 19 19 20 19 19 19 19 19 19 19 19 19 19 19 19 20 20 20 20 20 21 21 22 20 20 20 20 19 19 19 18 19
21 20 20 19 19 19 20 19 19 20 19 19 19 19 19 19 19 19 19 19 19 19 19 19 19 19 19 19 20 20 20 20 20 20 21 20 20 20 19 19 17 18 18
21 21 20 20 20 20 20 20 20 19 19 19 19 19 19 19 19 18 19 19 19 19 19 19 19 19 19 19 20 20 20 20 20 19 20 20 20 20 19 19 19 18 18
22 21 20 20 20 20 20 20 19 19 19 19 19 19 19 19 19 18 19 19 19 19 18 19 18 19 19 19 19 20 19 19 19 19 19 20 19 19 19 18 18 18 17
22 22 21 21 20 20 20 20 20 19 19 19 19 19 19 20 20 19 19 19 18 19 19 19 19 18 19 19 19 19 19 19 19 19 19 19 18 18 19 17 17 18 17
22 22 21 21 20 20 20 19 19 20 20 20 20 20 20 20 19 19 19 19 19 19 19 18 19 19 19 19 19 19 19 19 19 19 19 18 18 18 18 17 17 17 17
21 21 21 20 19 19 20 20 19 19 19 19 19 19 20 19 19 19 19 19 19 18 18 18 18 18 18 18 19 19 19 18 18 18 18 18 17 18 18 18 18 18 18
19 20 20 20 19 19 19 19 19 19 19 19 18 18 18 18 18 18 18 18 17 17 17 17 18 18 18 18 18 18 18 18 18 18 18 18 18 18 17 17 17 17 17
18 19 18 19 18 18 18 18 17 17 18 18 18 18 17 17 17 17 16 16 17 17 17 17 17 17 17 17 18 17 17 17 17 17 17 17 17 17 17 17 17 17 17
17 19 20 18 17 17 17 17 17 18 18 18 17 17 16 16 16 16 16 16 16 16 16 16 16 16 16 16 16 17 17 16 15 15 16 16 16 16 16 16 16 16 16
17 17 17 17 16 17 17 18 17 17 17 16 16 16 15 15 16 16 15 15 15 15 15 15 15 15 14 14 14 14 15 15 14 14 14 15 15 16 15 14 14 14 14
16 16 16 16 17 17 17 17 16 16 16 15 15 15 15 15 14 15 14 14 14 14 14 14 14 14 14 14 14 14 14 14 13 14 14 14 14 13 13 12 12 12 12
15 16 16 16 16 16 15 15 15 15 15 15 14 14 14 14 14 14 14 14 14 14 13 13 13 13 13 13 14 13 13 13 12 12 11 12 12 12 11 12 11 12 10
15 15 15 15 14 15 14 13 14 14 13 13 13 13 13 14 14 14 14 14 14 13 13 13 13 13 13 13 12 11 12 12 10 10 10 10 11 11 11 11 11 11 11
14 14 14 14 14 15 14 14 14 14 13 13 13 12 12 13 13 13 12 12 12 12 12 12 12 12 11 11 11 11 10 11 10 10 9 10 10 9 8 8 9 10 10
13 13 13 13 13 14 13 13 13 13 13 13 13 13 12 12 12 12 12 12 11 11 11 11 10 10 10 10 9 10 9 9 9 9 9 9 9 9 9 9 9 10 10
13 12 13 13 12 12 12 12 12 12 12 12 12 12 12 12 12 12 12 12 12 12 12 11 11 10 10 9 9 9 9 8 8 9 9 9 9 8 8 8 9 8 8
12 12 12 13 13 13 13 13 13 12 12 12 12 12 12 12 12 12 11 12 12 12 11 11 10 10 10 9 9 9 8 9 9 9 9 9 9 8 8 8 8 8 8
13 12 12 12 13 13 13 13 13 13 12 12 12 12 12 11 11 11 11 11 12 12 12 11 11 10 10 9 8 8 8 8 7 8 7 7 7 7 7 7 7 7 7
13 13 13 13 13 13 13 14 13 13 13 12 12 11 12 12 11 11 11 11 11 11 10 10 11 10 10 9 9 8 8 8 8 7 7 7 7 6 6 7 6 6 6
12 13 13 13 14 14 14 14 14 14 13 13 12 12 11 11 11 11 11 10 10 10 9 9 9 9 9 9 9 8 8 8 8 8 7 7 6 6 6 5 5 6 5
13 13 13 14 13 13 13 13 13 13 13 13 12 12 12 12 11 11 11 11 11 10 10 10 9 9 9 9 9 8 8 8 9 8 8 7 6 6 6 6 5 6 6
14 14 14 13 13 13 13 12 13 13 13 13 13 12 12 12 12 12 11 11 11 10 10 10 9 10 10 10 9 9 9 8 8 8 7 7 7 7 6 6 6 6 6
13 14 15 14 13 13 13 13 13 13 13 12 12 12 12 12 12 12 11 11 11 10 10 10 10 10 10 10 9 9 9 8 8 7 7 6 6 6 6 6 6 6 6
13 14 14 14 14 13 13 13 13 13 12 12 12 12 12 11 11 11 11 11 10 10 10 10 10 10 10 10 9 9 9 8 8 7 7 7 6 5 6 6 6 6 6
14 14 14 14 13 13 13 12 12 12 12 11 10 10 11 11 11 10 10 10 9 9 9 9 9 9 9 9 9 9 8 8 8 8 7 7 6 5 6 6 6 6 6
Height
1552 1554 1557 1559 1561 1563 1566 1572 1572 1573 1571 1572 1574 1575 1573 1572 1571 1572 1574 1575 1576 1576 1576 1577 1578 1579 1579 1580 1581 1582 1582 1582 1582 1583 1583 1580 1580 1578 1575 1577 1575 1575 1574
1548 1552 1555 1558 1560 1562 1565 1568 1571 1570 1572 1574 1576 1574 1573 1572 1572 1573 1574 1575 1575 1576 1577 1577 1578 1578 1578 1579 1579 1579 1580 1580 1580 1579 1581 1580 1580 1579 1578 1579 1576 1575 1574
1543 1548 1552 1555 1558 1560 1564 1566 1570 1571 1571 1573 1573 1572 1572 1572 1573 1574 1575 1575 1575 1576 1577 1577 1577 1577 1576 1576 1576 1576 1577 1577 1576 1575 1577 1578 1578 1578 1576 1575 1574 1573 1574
1539 1543 1548 1552 1555 1557 1559 1563 1565 1567 1569 1569 1570 1569 1569 1570 1571 1572 1573 1573 1574 1574 1575 1575 1575 1575 1574 1573 1573 1573 1574 1573 1574 1574 1574 1575 1575 1574 1571 1572 1573 1572 1571
1538 1540 1543 1548 1551 1554 1557 1559 1560 1562 1563 1563 1564 1565 1565 1566 1567 1569 1570 1571 1571 1571 1572 1572 1571 1571 1571 1571 1570 1570 1569 1569 1570 1570 1571 1573 1572 1569 1567 1561 1571 1570 1572
1533 1537 1540 1544 1548 1551 1553 1556 1557 1557 1557 1559 1561 1561 1561 1562 1564 1564 1565 1566 1567 1567 1568 1568 1567 1567 1567 1568 1567 1567 1567 1566 1567 1566 1567 1568 1568 1567 1565 1565 1564 1568 1569
1531 1533 1537 1540 1544 1547 1549 1552 1553 1554 1555 1555 1556 1557 1556 1558 1559 1560 1561 1561 1561 1562 1563 1563 1563 1564 1564 1562 1563 1564 1563 1563 1563 1563 1563 1565 1564 1565 1565 1564 1563 1563 1564
1528 1531 1534 1537 1540 1543 1546 1547 1549 1550 1551 1552 1552 1552 1554 1553 1554 1554 1556 1556 1556 1557 1558 1558 1558 1559 1559 1560 1560 1560 1559 1558 1559 1560 1560 1560 1561 1561 1561 1562 1562 1561 1560
1527 1528 1530 1533 1537 1540 1541 1544 1545 1546 1547 1547 1548 1547 1549 1548 1548 1549 1549 1550 1551 1552 1552 1553 1554 1555 1554 1555 1556 1556 1555 1555 1555 1556 1556 1556 1556 1557 1557 1558 1557 1557 1557
1524 1521 1526 1529 1534 1538 1538 1539 1542 1542 1542 1541 1541 1542 1543 1543 1542 1544 1545 1546 1547 1548 1548 1548 1549 1549 1549 1549 1550 1551 1552 1552 1551 1552 1553 1553 1552 1553 1553 1553 1553 1553 1554
1522 1524 1527 1529 1533 1533 1535 1535 1537 1537 1537 1538 1539 1538 1539 1539 1538 1539 1540 1541 1540 1540 1543 1544 1544 1544 1545 1546 1546 1546 1548 1549 1548 1550 1550 1550 1550 1549 1549 1550 1551 1550 1551
1520 1523 1525 1529 1529 1530 1533 1534 1535 1535 1536 1536 1536 1535 1537 1537 1537 1537 1538 1538 1540 1540 1539 1540 1540 1541 1543 1543 1544 1544 1546 1547 1547 1547 1547 1546 1546 1547 1546 1547 1547 1546 1547
1521 1522 1526 1528 1529 1529 1533 1533 1534 1535 1535 1534 1535 1536 1538 1537 1538 1538 1538 1538 1538 1539 1539 1540 1541 1541 1542 1542 1542 1542 1542 1542 1543 1544 1545 1544 1543 1545 1545 1545 1545 1545 1545
1521 1524 1526 1528 1529 1529 1531 1533 1534 1535 1536 1535 1534 1537 1538 1537 1536 1536 1538 1537 1536 1537 1538 1538 1539 1539 1540 1540 1540 1540 1540 1539 1541 1543 1544 1545 1545 1545 1545 1545 1546 1545 1544
1523 1524 1525 1526 1528 1528 1530 1534 1535 1535 1534 1534 1534 1536 1539 1538 1536 1535 1536 1536 1536 1536 1537 1537 1538 1537 1538 1538 1539 1540 1542 1540 1542 1540 1542 1542 1543 1542 1543 1543 1543 1544 1544
1522 1523 1525 1526 1528 1528 1530 1533 1534 1534 1534 1534 1535 1536 1536 1538 1537 1536 1537 1537 1537 1537 1538 1539 1539 1540 1540 1540 1539 1538 1539 1541 1541 1543 1543 1544 1544 1544 1545 1545 1544 1544 1543
1525 1526 1525 1528 1530 1531 1531 1534 1535 1534 1535 1536 1538 1538 1537 1537 1538 1538 1539 1539 1540 1541 1539 1539 1541 1540 1539 1540 1541 1541 1540 1540 1542 1542 1543 1542 1541 1541 1543 1542 1540 1541 1541
1526 1529 1531 1532 1532 1533 1533 1535 1536 1536 1538 1539 1540 1540 1540 1540 1541 1541 1541 1541 1541 1541 1541 1540 1540 1542 1540 1541 1540 1540 1542 1543 1540 1542 1543 1541 1540 1539 1539 1539 1539 1539 1538
1530 1532 1531 1533 1534 1535 1536 1537 1539 1540 1540 1541 1542 1541 1541 1543 1541 1541 1543 1543 1543 1545 1545 1544 1543 1543 1541 1541 1542 1542 1540 1542 1543 1539 1542 1541 1540 1540 1539 1540 1538 1537 1536
1530 1531 1532 1534 1535 1537 1539 1540 1541 1542 1542 1542 1541 1542 1543 1543 1544 1546 1545 1545 1544 1545 1544 1544 1544 1543 1543 1542 1541 1541 1541 1542 1542 1541 1542 1541 1540 1538 1538 1537 1536 1535 1534
1531 1531 1532 1534 1537 1538 1539 1541 1543 1541 1542 1543 1543 1545 1546 1545 1546 1546 1546 1544 1545 1545 1543 1542 1542 1542 1542 1542 1542 1542 1543 1543 1542 1540 1539 1539 1537 1536 1536 1535 1534 1533 1533
1532 1532 1533 1535 1537 1538 1540 1540 1540 1542 1544 1545 1543 1544 1544 1543 1544 1544 1544 1545 1545 1544 1543 1542 1542 1542 1541 1541 1540 1542 1542 1541 1540 1539 1538 1536 1536 1535 1534 1533 1533 1532 1531
1530 1531 1531 1533 1535 1537 1539 1540 1541 1543 1543 1543 1543 1541 1542 1542 1544 1544 1544 1544 1543 1543 1543 1542 1542 1541 1541 1539 1539 1540 1540 1539 1538 1537 1537 1536 1535 1534 1533 1532 1530 1530 1530
1528 1529 1531 1533 1533 1535 1537 1539 1539 1540 1539 1539 1539 1539 1541 1542 1543 1543 1542 1542 1541 1541 1541 1541 1540 1540 1539 1539 1538 1537 1537 1535 1534 1535 1534 1533 1533 1532 1530 1528 1528 1529 1528
1528 1528 1528 1529 1530 1533 1535 1535 1536 1535 1535 1536 1537 1538 1540 1541 1541 1541 1540 1540 1539 1539 1539 1539 1537 1537 1535 1533 1533 1531 1530 1531 1532 1532 1531 1530 1530 1528 1528 1527 1527 1527 1526
1524 1524 1526 1527 1527 1529 1529 1531 1532 1533 1534 1534 1535 1537 1537 1537 1538 1538 1537 1537 1536 1535 1534 1533 1533 1531 1530 1530 1528 1525 1525 1527 1526 1527 1527 1526 1525 1526 1526 1525 1525 1524 1524
Wind_Speed
18 21 17 18 18 16 16 11 12 12 8 7 13 12 9 9 10 10 11 11 15 14 11 10 14 13 15 15 14 9 9 7 9 11 9 11 14 11 11 13 13 10 8
20 20 18 18 16 15 12 12 12 11 9 10 13 13 10 8 8 13 13 11 15 14 10 10 11 11 13 14 11 10 10 10 14 15 18 8 8 9 12 8 7 12 13
22 20 19 18 17 17 18 14 13 13 12 14 12 14 11 10 9 10 12 13 12 12 14 12 13 16 17 14 15 16 14 13 14 15 14 11 8 11 14 7 10 14 13
23 21 19 19 17 18 20 17 14 15 16 15 13 13 15 13 13 12 12 13 13 13 16 14 15 18 16 18 16 15 15 16 16 14 14 10 11 16 17 13 11 13 9
21 22 21 18 18 18 17 16 13 13 14 13 12 13 17 16 14 12 15 13 13 15 16 15 16 17 19 19 20 18 16 16 16 16 14 11 14 16 13 2 13 12 12
24 20 19 20 20 19 20 18 18 18 17 17 18 18 19 19 17 16 15 16 20 23 19 16 16 19 19 18 19 18 17 18 17 14 14 13 14 12 5 6 8 11 14
23 25 23 20 22 23 23 23 23 24 22 23 21 22 22 21 20 20 18 19 21 22 20 18 17 12 17 21 19 18 19 18 19 18 17 15 15 12 10 12 13 14 15
18 18 25 25 24 23 24 23 22 21 22 23 23 24 25 24 23 21 26 28 21 20 19 19 19 18 20 18 19 17 14 17 17 17 18 17 15 11 10 11 13 15 15
8 10 10 15 17 26 24 22 20 19 19 19 18 19 22 24 26 27 26 26 23 20 22 20 19 20 22 22 18 19 17 18 15 11 13 14 17 18 17 16 16 14 11
7 8 14 13 14 11 11 9 14 18 18 18 19 20 21 21 23 24 24 22 23 24 24 22 21 20 20 19 17 17 18 11 10 8 7 8 11 12 13 13 13 13 12
6 8 9 9 11 11 9 9 12 12 12 12 12 12 13 15 17 16 17 17 17 21 21 21 20 17 15 12 10 8 8 9 8 11 13 14 14 14 9 8 8 9 7
12 11 10 10 6 4 6 6 7 7 7 6 6 5 6 6 9 10 9 3 7 7 9 15 15 14 16 12 14 17 14 15 16 14 15 15 13 12 11 11 11 11 14
9 8 7 7 6 6 6 5 4 4 3 3 4 1 1 1 3 2 3 4 6 7 8 6 7 7 7 8 10 11 11 11 13 12 11 10 7 8 11 11 14 15 11
5 6 7 6 7 6 6 7 6 7 6 4 5 2 3 2 1 1 4 5 7 8 7 7 7 6 8 9 6 3 4 5 3 1 4 6 7 8 8 10 8 6 6
6 6 7 7 7 6 3 3 3 2 5 7 5 4 5 3 3 3 3 3 5 5 5 6 6 4 5 4 4 3 3 2 3 2 3 3 5 1 1 8 6 2 5
10 10 9 8 8 7 7 6 5 4 4 3 2 2 3 4 7 9 8 10 10 9 7 6 5 4 5 5 3 1 1 2 2 5 5 5 7 7 6 6 6 4 6
10 12 13 11 10 10 10 9 10 11 11 10 10 9 10 9 10 9 10 12 14 11 10 9 7 5 5 4 4 4 5 4 6 6 8 13 13 13 15 14 12 13 13
14 13 9 11 14 13 13 11 11 11 10 10 10 10 10 10 9 9 10 11 11 12 12 13 13 9 6 5 4 2 3 3 2 4 6 7 6 6 7 9 7 7 4
8 6 7 10 9 6 6 4 5 5 3 7 7 8 9 11 13 11 10 11 10 6 3 5 7 7 7 2 5 4 1 4 5 5 5 7 9 8 5 7 9 9 13
9 9 9 3 6 5 4 4 3 4 3 2 6 3 3 6 6 6 8 5 5 4 3 2 4 2 4 2 6 3 5 5 5 4 5 8 7 11 10 9 7 11 10
4 5 6 6 3 3 3 3 3 4 4 3 3 3 5 2 2 1 2 6 4 5 8 8 1 5 2 3 4 5 3 3 6 10 10 8 11 14 11 7 8 9 7
5 2 5 3 2 2 3 2 2 2 3 4 5 2 9 2 3 3 3 5 4 8 6 9 8 3 3 4 3 2 6 6 9 9 8 10 7 9 10 9 8 8 9
7 9 9 7 8 7 8 5 5 6 5 5 3 2 4 2 2 3 2 4 5 5 6 7 7 4 7 7 3 4 6 8 8 7 9 9 9 10 9 9 9 9 9
8 6 9 7 8 7 5 7 8 10 9 6 4 4 5 4 6 6 6 6 6 7 7 7 7 8 9 10 8 9 10 8 8 10 13 10 9 9 12 9 8 9 9
10 9 7 8 7 7 10 9 7 4 9 7 8 12 14 9 7 8 8 8 8 9 9 11 9 9 11 12 13 15 15 15 14 14 15 9 10 10 11 10 10 10 8
11 11 11 12 12 13 14 11 12 12 12 3 3 5 8 5 5 7 7 7 8 9 9 9 10 14 12 13 18 18 17 15 15 16 17 13 7 8 10 9 9 9 9
Wind_Direction
202 215 212 223 226 229 224 216 239 227 257 256 274 273 277 274 294 291 295 272 270 283 292 289 304 291 288 268 283 305 315 345 301 284 337 347 321 309 296 297 300 316 336
198 202 214 217 217 228 235 239 240 266 239 247 264 285 284 260 274 293 296 293 278 279 274 275 281 280 279 284 293 285 299 290 291 290 278 316 322 304 288 283 262 280 314
191 198 203 205 214 216 233 250 234 245 245 251 262 283 287 279 266 277 285 290 290 290 275 274 284 283 272 272 269 275 271 273 267 279 283 270 275 283 259 254 244 278 304
185 195 194 202 208 215 222 225 226 242 251 256 259 267 283 284 273 275 284 293 296 285 280 267 266 272 279 275 276 269 269 270 277 277 283 295 287 292 275 245 270 289 294
190 191 202 208 204 209 218 236 237 233 244 251 250 250 261 270 272 270 279 286 292 295 295 268 267 271 273 276 278 278 267 268 276 274 277 273 279 292 305 260 268 267 233
190 188 193 212 213 210 213 223 228 241 251 251 257 258 264 266 255 254 250 256 262 277 288 288 282 276 277 277 274 275 263 273 275 277 282 286 268 302 297 309 236 239 251
205 198 195 200 216 221 227 232 235 238 250 263 265 270 270 269 263 259 256 267 273 274 272 273 280 277 273 277 274 271 267 262 263 265 271 274 276 285 282 255 264 265 260
208 219 220 219 228 233 237 243 247 251 251 256 257 259 262 262 264 258 267 279 273 270 262 263 271 280 281 282 282 280 265 260 259 259 263 270 270 267 266 259 268 267 265
211 224 219 222 231 235 245 250 252 256 256 263 269 269 264 264 264 268 271 278 266 260 262 269 280 280 282 283 279 263 259 260 268 259 256 262 273 277 278 274 267 267 273
219 219 236 230 228 234 226 241 260 264 261 263 263 262 263 260 269 275 276 269 261 257 263 272 281 284 277 273 265 251 244 240 249 272 284 276 273 281 286 279 265 263 265
173 187 195 196 202 211 230 252 263 265 270 271 269 266 274 281 280 278 282 265 256 252 264 267 273 269 258 242 230 234 229 239 252 278 289 287 283 275 283 292 271 261 260
183 206 181 190 217 235 254 251 247 253 254 258 273 282 290 296 283 259 266 307 302 296 289 276 274 272 266 272 289 284 275 279 282 280 266 269 274 286 278 283 300 294 291
187 188 204 200 184 146 127 120 117 109 95 69 82 42 72 69 52 23 302 313 309 309 320 306 295 295 290 278 299 295 284 277 262 254 261 270 287 304 322 313 306 301 312
168 177 176 170 164 163 165 156 158 154 123 76 98 131 161 156 166 323 317 319 316 309 308 290 283 293 306 294 292 282 229 207 157 353 319 331 342 353 357 3 349 5 2
160 155 148 150 157 151 148 177 154 163 161 179 176 212 264 270 286 307 306 319 339 331 320 283 272 257 264 272 285 274 262 291 247 226 211 241 245 189 74 337 323 303 306
122 128 130 135 136 127 117 128 130 124 132 135 147 114 110 81 66 63 57 57 52 51 52 44 22 351 323 304 272 270 74 40 276 301 321 256 250 263 250 255 304 244 253
111 105 100 104 113 118 110 102 100 97 94 95 96 96 90 81 77 75 69 66 51 34 46 34 16 18 23 23 20 27 26 350 306 299 264 267 280 284 273 273 274 269 258
103 102 88 90 86 84 87 84 77 83 89 91 91 88 80 73 68 67 71 58 39 23 25 11 9 1 4 4 8 9 326 313 335 333 317 313 313 311 330 334 329 306 275
100 110 121 143 135 115 92 85 83 114 53 68 59 71 64 66 60 56 64 62 50 24 41 17 359 339 319 312 319 324 264 343 345 343 1 349 325 315 300 296 283 272 283
157 147 124 84 74 95 92 131 157 144 122 49 74 28 47 54 36 57 58 36 38 30 3 24 360 294 284 267 319 351 350 340 345 4 311 283 288 292 303 260 272 277 284
110 128 136 118 123 130 134 149 148 133 121 157 208 251 271 170 110 95 9 359 13 9 345 341 317 323 266 284 231 261 273 297 296 310 307 299 312 313 314 292 291 278 277
191 99 108 130 188 197 181 176 143 163 183 199 242 340 5 145 94 358 335 346 320 334 346 343 353 323 302 257 295 285 292 303 306 299 310 311 313 299 312 311 301 291 292
220 220 205 202 201 224 231 237 231 212 219 215 225 294 348 103 295 290 265 311 309 319 319 323 327 310 319 258 254 276 280 283 287 297 292 289 297 302 296 297 299 293 293
262 251 223 228 203 212 221 220 225 230 239 247 250 256 257 245 287 284 290 298 290 294 291 292 288 277 272 256 280 278 264 253 257 297 316 301 300 297 303 304 280 286 281
242 248 275 219 218 239 256 255 253 299 228 216 238 257 259 259 273 315 289 290 289 287 284 291 287 299 287 274 250 260 262 273 288 302 319 290 277 285 276 277 276 286 284
245 260 256 244 243 234 226 225 250 244 259 257 313 266 294 275 278 293 288 288 278 274 272 289 293 279 285 286 282 264 255 265 275 286 298 311 284 274 285 277 278 280 278